Location: Les Salelles
(44.4192°N, 4.1044°E)
Time: 15:40:52
(UTC+00:00)

YAOGAN 1 - Pass Details

Date: 20 January 2021
Orbit: 618 x 620 km, 97.9° (Epoch: 25 February)

Event Time Altitude Azimuth Distance (km) Brightness Sun altitude
Rises 18:27:58 0° 168° (SSE) 2,883 6.0 -19.6°
Reaches altitude 10° 18:30:09 10° 170° (S) 1,982 5.1 -20.0°
Maximum altitude 18:34:28 80° 257° (WSW) 637 2.6 -20.8°
Drops below altitude 10° 18:38:49 10° 345° (NNW) 1,998 5.2 -21.5°
Sets 18:41:01 0° 346° (NNW) 2,908 6.1 -21.9°
